metlocid,date_time,avg_airt1m,std_airt1m,min_airt1m,max_airt1m,n_airt1m,avg_airt3m,std_airt3m,min_airt3m,max_airt3m,n_airt3m,n_comments
HODM,11/20/93,,,,,0,-6.223333359,0.861935791,-6.89,-5.25,3,0
HODM,11/21/93,,,,,0,-4.68749997,2.534852759,-7.5,-1.23,8,0
HODM,11/22/93,,,,,0,-6.311250031,1.630989638,-8.97,-4.49,8,0
HODM,11/23/93,,,,,0,-7.256249905,1.708206539,-9.26,-5.12,8,0
HODM,11/24/93,,,,,0,-9.036249995,0.416822444,-9.53,-8.38,8,0
HODM,11/25/93,,,,,0,-7.832500041,2.273152231,-10.63,-4.82,8,0
HODM,11/26/93,,,,,0,-8.371428558,1.920194608,-10.9,-5.4,7,0
HODM,11/27/93,,,,,0,-7.898750007,1.392956179,-9.34,-4.91,8,0
HODM,11/28/93,,,,,0,-9.37500006,1.335012037,-11.26,-7.73,8,0
HODM,11/29/93,,,,,0,-9.623749912,1.256786598,-10.94,-7.9,8,0
HODM,11/30/93,,,,,0,-8.780000091,2.378420863,-12.62,-6.37,8,0
HODM,12/1/93,,,,,0,-7.75000006,1.81638574,-10.12,-5.73,8,0
HODM,12/2/93,,,,,0,-8.143749952,1.471043781,-10.77,-6.73,8,0
HODM,12/3/93,,,,,0,-9.169666656,1.679828541,-11.84,-6.54,30,0
HODM,12/4/93,,,,,0,-10.68083336,0.955670303,-13.66,-8.99,48,0
HODM,12/5/93,,,,,0,-10.866875,2.053677745,-13.84,-6.64,48,0
HODM,12/6/93,,,,,0,-10.27583331,2.649036595,-14.12,-6.46,48,0
HODM,12/7/93,,,,,0,-9.826666653,2.210322294,-13.33,-5.98,48,0
HODM,12/8/93,,,,,0,-9.792499999,0.944370813,-12.58,-8.14,48,0
HODM,12/9/93,,,,,0,-9.346250027,2.576753389,-13.97,-6,48,0
HODM,12/10/93,,,,,0,-8.407708327,2.664946776,-12.73,-4.69,48,0
HODM,12/11/93,,,,,0,-6.686041673,1.483997946,-9.3,-4.69,48,0
HODM,12/12/93,,,,,0,-7.101250067,2.275997473,-10.77,-3.2,48,0
HODM,12/13/93,,,,,0,-9.075416634,1.376690379,-12.21,-5.93,48,0
HODM,12/14/93,,,,,0,-7.353541672,2.597618799,-12.42,-4.34,48,0
HODM,12/15/93,,,,,0,-4.862708344,2.581906544,-9.12,0.06,48,0
HODM,12/16/93,,,,,0,-3.066666673,1.611590144,-5.89,-1.02,48,0
HODM,12/17/93,,,,,0,-1.213333334,1.481677219,-3.65,2.45,48,0
HODM,12/18/93,,,,,0,-4.035208327,0.863247184,-5.27,-1.93,48,0
HODM,12/19/93,,,,,0,-3.321458317,1.875645666,-7.54,0.5,48,0
HODM,12/20/93,,,,,0,-5.802916696,1.294457837,-7.52,-3.18,48,0
HODM,12/21/93,,,,,0,-8.533124993,0.757249091,-10.35,-7.23,48,1
HODM,12/22/93,,,,,0,-5.773750012,3.513989492,-10.55,3.45,48,0
HODM,12/23/93,,,,,0,-7.030208364,2.339862251,-9.75,-0.28,48,0
HODM,12/24/93,,,,,0,-5.642500006,2.081834851,-8.6,-1.57,48,0
HODM,12/25/93,,,,,0,-4.825434791,2.573117218,-9.04,1.23,46,0
HODM,12/26/93,,,,,0,-4.757291685,1.634654944,-8.08,-2.53,48,0
HODM,12/27/93,,,,,0,-5.247708345,1.812878531,-8.41,-2.72,48,0
HODM,12/28/93,,,,,0,-7.489166667,0.932103152,-8.5,-4.36,48,0
HODM,12/29/93,,,,,0,-5.119791657,2.031801938,-8.55,-2.01,48,0
HODM,12/30/93,,,,,0,-3.082499991,1.395865488,-6.07,0.17,48,0
HODM,12/31/93,,,,,0,-3.854583355,1.830703821,-7.66,-0.6,48,0
HODM,1/1/94,,,,,0,-2.005833323,2.477752771,-5.77,1.92,48,0
HODM,1/2/94,,,,,0,-0.680416665,1.577064279,-3.33,1.13,48,0
HODM,1/3/94,,,,,0,-2.548541658,1.141639332,-4.62,-0.17,48,0
HODM,1/4/94,,,,,0,-2.269375013,2.032598609,-5.65,1.05,48,0
HODM,1/5/94,,,,,0,-1.688541686,2.448468935,-5.33,2.2,48,0
HODM,1/6/94,,,,,0,-2.664999981,1.696698917,-5.64,0.37,48,0
HODM,1/7/94,,,,,0,-2.257499993,2.558987917,-5.82,3.75,48,0
HODM,1/8/94,,,,,0,-3.257916704,1.968960184,-6.92,0.73,48,0
HODM,1/9/94,,,,,0,-1.459583327,2.279877691,-5.25,4.6,48,0
HODM,1/10/94,,,,,0,-2.131250017,1.893503613,-5.65,1.04,48,0
HODM,1/11/94,,,,,0,-4.146041655,1.782262175,-7.35,-0.28,48,0
HODM,1/12/94,,,,,0,-3.25633333,2.357946921,-6.26,1.46,30,0
HODM,1/13/94,,,,,0,-3.707500011,1.960807071,-6.23,-1.29,8,0
HODM,1/14/94,,,,,0,-3.132500038,1.58286138,-5.67,-1.3,8,0
HODM,1/15/94,,,,,0,-1.918749996,1.252134625,-3.75,-0.59,8,0
HODM,1/16/94,,,,,0,-4.527500033,1.00136696,-6.46,-3.28,8,0
HODM,1/17/94,,,,,0,-2.977499969,1.779524365,-5.49,-0.7,8,0
HODM,1/18/94,,,,,0,-2.204999994,3.797134266,-6.89,3.15,8,0
HODM,1/19/94,,,,,0,-3.632499969,2.136229931,-6.24,0.08,8,0
HODM,1/20/94,,,,,0,-3.476249957,2.458187096,-6.96,0.17,8,0
HODM,1/21/94,,,,,0,-4.142499931,2.363410013,-6.97,-0.59,8,0
HODM,1/22/94,,,,,0,-6.308749914,1.75716842,-9.04,-4.33,8,0
HODM,1/23/94,,,,,0,-4.851250008,2.371469937,-7.24,-1.88,8,0
HODM,1/24/94,,,,,0,-5.564999983,2.680730137,-8.82,-1.82,8,0
HODM,1/25/94,,,,,0,-5.42750001,2.013814778,-7.92,-2.14,8,0
HODM,1/26/94,,,,,0,-6.037500024,2.196937712,-9.13,-3.04,8,0
HODM,1/27/94,,,,,0,-5.455000073,1.551800842,-7.26,-3.43,8,0
HODM,1/28/94,,,,,0,-6.288750052,1.447761354,-8.14,-4.2,8,0
HODM,1/29/94,,,,,0,-10.05875003,1.91817205,-12.22,-6.86,8,0
HODM,1/30/94,,,,,0,-11.39999986,1.588368495,-13.22,-9.48,8,0
HODM,1/31/94,,,,,0,-8.917500079,2.389176527,-11.28,-4.45,8,0
HODM,2/1/94,,,,,0,-8.836250007,2.557515185,-11.65,-5.14,8,0
HODM,2/2/94,,,,,0,-6.40625,1.453015931,-8.14,-4.53,8,0
HODM,2/3/94,,,,,0,-7.897499919,1.165390667,-9.48,-6.1,8,0
HODM,2/4/94,,,,,0,-8.596249938,1.463156373,-10.91,-6.51,8,1
HODM,2/5/94,,,,,0,-10.00999987,2.658984843,-13.19,-7.2,8,0
HODM,2/6/94,,,,,0,-8.459999979,0.645467702,-9.74,-7.58,8,0
HODM,2/7/94,,,,,0,-7.787499994,3.949877948,-11.64,-1.23,8,1
HODM,2/8/94,,,,,0,-8.433749974,1.745344324,-10.52,-5.65,8,0
HODM,2/9/94,,,,,0,-7.917500019,2.18444993,-10.87,-4.74,8,1
HODM,2/10/94,,,,,0,-11.48250008,1.595124128,-13.78,-9.34,8,0
HODM,2/11/94,,,,,0,-10.12499991,3.282142013,-12.66,-3.47,8,0
HODM,2/12/94,,,,,0,-11.72124994,1.97284007,-14.73,-9.41,8,0
HODM,2/13/94,,,,,0,-12.28499997,1.968617975,-15.49,-10.47,8,0
HODM,2/14/94,,,,,0,-11.03375,2.711662412,-13.89,-7.15,8,0
HODM,2/15/94,,,,,0,-10.74625003,3.900190323,-14.39,-4.08,8,0
HODM,2/16/94,,,,,0,-9.350000024,1.233427329,-10.75,-7.21,8,0
HODM,2/17/94,,,,,0,-9.321250021,3.595963793,-12.8,-3.58,8,0
HODM,2/18/94,,,,,0,-10.32999992,3.478690157,-13.65,-4.29,8,0
HODM,2/19/94,,,,,0,-13.95624983,1.351643635,-16.38,-11.8,8,1
HODM,2/20/94,,,,,0,-14.94500017,3.800710628,-18.62,-9.04,8,0
HODM,2/21/94,,,,,0,-18.20749974,1.814125184,-20.35,-15.24,8,0
HODM,2/22/94,,,,,0,-16.42875016,2.542071431,-19.45,-12.38,8,0
HODM,2/23/94,,,,,0,-15.64874995,3.215384656,-18.43,-10.7,8,0
HODM,2/24/94,,,,,0,-15.25499976,4.120606352,-18.96,-7.84,8,0
HODM,2/25/94,,,,,0,-17.08749998,3.033610466,-20.85,-11.75,8,0
HODM,2/26/94,,,,,0,-18.06124985,2.687916728,-20.81,-13.84,8,0
HODM,2/27/94,,,,,0,-18.06124997,3.509934541,-21.29,-12.62,8,0
HODM,2/28/94,,,,,0,-18.96750009,3.578709826,-22.59,-12.3,8,0
HODM,3/1/94,,,,,0,-20.2299999,3.879035203,-23.13,-13.44,8,0
HODM,3/2/94,,,,,0,-18.80999982,4.357240098,-23.13,-11.84,8,0
HODM,3/3/94,,,,,0,-19.72249985,2.680584654,-24.31,-16.08,8,0
HODM,3/4/94,,,,,0,-22.11249995,2.64930595,-24.6,-17.64,8,0
HODM,3/5/94,,,,,0,-22.37875009,1.624310293,-25.03,-20.43,8,0
HODM,3/6/94,,,,,0,-26.74000025,1.370026179,-29.07,-24.99,8,0
HODM,3/7/94,,,,,0,-25.8837502,3.945956446,-30.87,-20.67,8,0
HODM,3/8/94,,,,,0,-23.26875019,1.46878398,-24.84,-20.43,8,0
HODM,3/9/94,,,,,0,-20.48999977,1.696096266,-23.31,-18.03,8,0
HODM,3/10/94,,,,,0,-17.45124996,2.488455444,-21.3,-14.51,8,0
HODM,3/11/94,,,,,0,-17.04499996,1.13264544,-18.72,-15.29,8,0
HODM,3/12/94,,,,,0,-16.33624995,2.018697921,-18.19,-13.32,8,0
HODM,3/13/94,,,,,0,-17.98750019,1.181219175,-19.6,-16.41,8,0
HODM,3/14/94,,,,,0,-19.1624999,1.684948573,-21.69,-16.96,8,0
HODM,3/15/94,,,,,0,-21.95875001,0.888102984,-23.07,-20.34,8,0
HODM,3/16/94,,,,,0,-23.45624995,1.58125561,-25.56,-20.95,8,0
HODM,3/17/94,,,,,0,-23.9849999,1.872385867,-25.81,-20.8,8,0
HODM,3/18/94,,,,,0,-22.04999995,2.393730393,-25.12,-19.06,8,0
HODM,3/19/94,,,,,0,-20.85249972,1.962736816,-24.21,-18.68,8,0
HODM,3/20/94,,,,,0,-25.30749989,1.156185648,-26.95,-23.47,8,0
HODM,3/21/94,,,,,0,-26.76500034,1.905960696,-28.61,-23.45,8,0
HODM,3/22/94,,,,,0,-24.71750021,2.085341676,-28.07,-21.56,8,0
HODM,3/23/94,,,,,0,-28.29124975,1.311514294,-29.71,-25.97,8,0
HODM,3/24/94,,,,,0,-23.66750002,2.177670612,-26.72,-21.03,8,0
HODM,3/25/94,,,,,0,-21.14750028,1.01076704,-22.68,-19.69,8,0
HODM,3/26/94,,,,,0,-20.31875014,1.324423844,-22.42,-18.5,8,0
HODM,3/27/94,,,,,0,-21.09125018,3.413550519,-25.6,-16.6,8,0
HODM,3/28/94,,,,,0,-17.96499991,0.826420595,-18.77,-16.52,8,0
HODM,3/29/94,,,,,0,-22.07249999,1.796836291,-23.99,-19.67,8,0
HODM,3/30/94,,,,,0,-24.15750003,1.113010659,-25.58,-22.84,8,0
HODM,3/31/94,,,,,0,-20.54124975,1.26100227,-22.13,-18.39,8,0
HODM,4/1/94,,,,,0,-18.60624981,1.478212796,-20.77,-16.88,8,0
HODM,4/2/94,,,,,0,-15.96625018,0.432565155,-16.44,-15.11,8,0
HODM,4/3/94,,,,,0,-17.35124969,0.602006759,-17.96,-16.28,8,0
HODM,4/4/94,,,,,0,-16.59125042,0.219703749,-16.85,-16.27,8,0
HODM,4/5/94,,,,,0,-18.13250017,1.171186757,-19.71,-15.91,8,0
HODM,4/6/94,,,,,0,-19.63874984,1.311513869,-21.88,-18.34,8,0
HODM,4/7/94,,,,,0,-14.74125004,2.908506728,-17.82,-9.64,8,0
HODM,4/8/94,,,,,0,-9.913750052,0.709062441,-10.8,-8.68,8,0
HODM,4/9/94,,,,,0,-11.28625,0.282789066,-11.75,-10.92,8,0
HODM,4/10/94,,,,,0,-12.38124979,0.753097121,-13.65,-11.32,8,0
HODM,4/11/94,,,,,0,-13.16375005,0.968326189,-14.88,-12.04,8,0
HODM,4/12/94,,,,,0,-14.59749997,0.469033863,-15.24,-13.89,8,0
HODM,4/13/94,,,,,0,-14.44624984,1.157940723,-16.39,-13.32,8,0
HODM,4/14/94,,,,,0,-19.16625023,1.999477863,-22.17,-16.62,8,0
HODM,4/15/94,,,,,0,-23.20625019,1.074455569,-24.84,-21.28,8,0
HODM,4/16/94,,,,,0,-26.17624974,1.144938501,-27.22,-24.15,8,0
HODM,4/17/94,,,,,0,-18.43624997,4.120932479,-25.75,-14.18,8,0
HODM,4/18/94,,,,,0,-12.25750017,1.675416789,-14.09,-9.68,8,0
HODM,4/19/94,,,,,0,-11.60625005,1.68198805,-15.49,-9.69,8,0
HODM,4/20/94,,,,,0,-15.61249983,1.591645613,-17.46,-13.37,8,1
HODM,4/21/94,,,,,0,-17.4525001,0.795446874,-18.67,-16.29,8,0
HODM,4/22/94,,,,,0,-21.36374974,1.995516141,-23.31,-18.55,8,0
HODM,4/23/94,,,,,0,-24.48624992,1.47019839,-26.08,-22.41,8,0
HODM,4/24/94,,,,,0,-21.88749981,2.401462221,-25.75,-19.1,8,0
HODM,4/25/94,,,,,0,-23.53750014,3.653247835,-26.38,-17.03,8,0
HODM,4/26/94,,,,,0,-23.57500005,2.445088317,-26.29,-20.2,8,0
HODM,4/27/94,,,,,0,-18.41874981,0.810792114,-19.56,-17.09,8,0
HODM,4/28/94,,,,,0,-21.68250012,1.310787274,-23.3,-19.78,8,0
HODM,4/29/94,,,,,0,-25.81624985,1.424369137,-27.18,-23.07,8,0
HODM,4/30/94,,,,,0,-29.64499998,1.215142627,-31.36,-27.7,8,0
HODM,5/1/94,,,,,0,-31.57625008,1.489505856,-33.27,-29.07,8,0
HODM,5/2/94,,,,,0,-26.60249972,1.24547995,-27.88,-24.03,8,0
HODM,5/3/94,,,,,0,-25.80875015,0.999091882,-26.95,-24.15,8,0
HODM,5/4/94,,,,,0,-25.02625012,1.861573247,-27.81,-22.45,8,0
HODM,5/5/94,,,,,0,-24.55500007,3.111641409,-28.05,-20.35,8,0
HODM,5/6/94,,,,,0,-18.32124972,2.020144184,-22.38,-16.35,8,0
HODM,5/7/94,,,,,0,-18.23125005,2.121848157,-22.08,-16.03,8,0
HODM,5/8/94,,,,,0,-22.15625024,1.490119344,-25.53,-21.02,8,0
HODM,5/9/94,,,,,0,-22.71749997,1.772123501,-24.06,-19.22,8,0
HODM,5/10/94,,,,,0,-23.60625005,1.445702214,-24.94,-21.18,8,0
HODM,5/11/94,,,,,0,-26.61500001,1.479131204,-28.59,-25.08,8,0
HODM,5/12/94,,,,,0,-29.79999971,1.430853814,-31.57,-27.9,8,0
HODM,5/13/94,,,,,0,-30.35249996,1.258499452,-31.66,-28.1,8,0
HODM,5/14/94,,,,,0,-31.00000024,1.142265947,-32.27,-29.03,8,0
HODM,5/15/94,,,,,0,-30.22125006,0.952837095,-31.92,-29.16,8,0
HODM,5/16/94,,,,,0,-31.03499985,2.004993961,-33.25,-26.48,8,0
HODM,5/17/94,,,,,0,-32.72625041,0.877626219,-33.74,-31.48,8,0
HODM,5/18/94,,,,,0,-34.71124983,1.104632643,-36.45,-33.02,8,0
HODM,5/19/94,,,,,0,-34.0175004,2.14850545,-37.8,-31.7,8,0
HODM,5/20/94,,,,,0,-27.42000008,1.968124647,-30.87,-25.86,8,0
HODM,5/21/94,,,,,0,-23.94749999,2.463283107,-26.9,-20.68,8,0
HODM,5/22/94,,,,,0,-26.26124978,2.379420381,-28.7,-21.32,8,0
HODM,5/23/94,,,,,0,-25.59000015,7.400579201,-34.62,-18.07,8,0
HODM,5/24/94,,,,,0,-34.31124926,0.770518335,-35.49,-33.37,8,0
HODM,5/25/94,,,,,0,-32.46125031,0.904377399,-33.89,-31.21,8,0
HODM,5/26/94,,,,,0,-23.9974997,3.803024066,-29.83,-19.98,8,0
HODM,5/27/94,,,,,0,-31.32375026,2.192454737,-33.63,-27.9,8,0
HODM,5/28/94,,,,,0,-30.3349998,2.919359018,-33.44,-25.33,8,0
HODM,5/29/94,,,,,0,-32.41125059,0.927815501,-33.41,-30.7,8,0
HODM,5/30/94,,,,,0,-32.26625013,1.77027766,-33.98,-28.53,8,0
HODM,5/31/94,,,,,0,-32.2075007,1.981743843,-35.2,-28.25,8,0
HODM,6/1/94,,,,,0,-25.72125006,2.751614459,-29.89,-21.02,8,0
HODM,6/2/94,,,,,0,-31.23250031,0.83933275,-32.49,-30.05,8,0
HODM,6/3/94,,,,,0,-34.54624939,0.864571259,-35.62,-33.02,8,0
HODM,6/4/94,,,,,0,-26.53000021,3.29551241,-30.52,-21.32,8,0
HODM,6/5/94,,,,,0,-22.98625016,3.508715621,-28.93,-18.53,8,0
HODM,6/6/94,,,,,0,-19.43499994,2.866296686,-21.58,-14.4,8,0
HODM,6/7/94,,,,,0,-14.6737498,1.966708121,-17.82,-12.65,8,0
HODM,6/8/94,,,,,0,-16.8912499,1.048556075,-17.94,-15.11,8,0
HODM,6/9/94,,,,,0,-18.4799999,1.976251924,-21.43,-15.44,8,0
HODM,6/10/94,,,,,0,-19.31750023,2.919353147,-23.19,-15.8,8,0
HODM,6/11/94,,,,,0,-25.30500007,2.957233216,-29.75,-22.07,8,0
HODM,6/12/94,,,,,0,-27.76875019,1.142909004,-29.65,-26.26,8,0
HODM,6/13/94,,,,,0,-28.27000022,2.477971305,-31.25,-25.2,8,0
HODM,6/14/94,,,,,0,-29.72374988,2.662909029,-32.36,-25.86,8,0
HODM,6/15/94,,,,,0,-21.02374983,2.563975081,-24.55,-17.69,8,0
HODM,6/16/94,,,,,0,-16.54374993,1.461398065,-19.44,-15.01,8,0
HODM,6/17/94,,,,,0,-15.86500001,0.936452641,-17.37,-14.53,8,0
HODM,6/18/94,,,,,0,-15.80875015,3.093308069,-19.33,-11.31,8,0
HODM,6/19/94,,,,,0,-18.01749992,1.868351201,-21.23,-15.91,8,0
HODM,6/20/94,,,,,0,-20.33875012,1.147337834,-21.45,-18.11,8,0
HODM,6/21/94,,,,,0,-22.22375035,0.945167301,-24.04,-21.25,8,0
HODM,6/22/94,,,,,0,-24.27750015,0.472735062,-25.1,-23.76,8,0
HODM,6/23/94,,,,,0,-26.79249978,0.557769591,-27.56,-25.9,8,0
HODM,6/24/94,,,,,0,-24.53499985,0.641114729,-25.63,-23.7,8,0
HODM,6/25/94,,,,,0,-17.35000014,4.225561955,-23.84,-13.08,8,0
HODM,6/26/94,,,,,0,-23.00000024,2.575527483,-26.17,-18.19,8,0
HODM,6/27/94,,,,,0,-21.5787499,1.998574403,-24.25,-19.13,8,0
HODM,6/28/94,,,,,0,-23.57250023,0.736899913,-25.12,-22.69,8,0
HODM,6/29/94,,,,,0,-26.23124957,1.152629771,-27.56,-24.81,8,0
HODM,6/30/94,,,,,0,-28.43749976,0.569806016,-29.14,-27.81,8,0
HODM,7/1/94,,,,,0,-24.98749971,3.668653871,-27.81,-17.5,8,0
HODM,7/2/94,,,,,0,-19.85249996,1.061114221,-21.13,-18.17,8,0
HODM,7/3/94,,,,,0,-20.97125006,1.302244404,-22.38,-18.25,8,0
HODM,7/4/94,,,,,0,-20.48374987,1.579285375,-22.86,-18.15,8,0
HODM,7/5/94,,,,,0,-24.93124986,2.680828191,-29.55,-22.07,8,0
HODM,7/6/94,,,,,0,-29.99750018,1.074134611,-31.29,-28.16,8,0
HODM,7/7/94,,,,,0,-27.04999995,2.336070735,-30.31,-23.79,8,0
HODM,7/8/94,,,,,0,-25.75749969,1.604054836,-27.96,-23.53,8,0
HODM,7/9/94,,,,,0,-28.94749975,1.844758456,-32.67,-27.38,8,0
HODM,7/10/94,,,,,0,-35.60374975,1.530406061,-37.83,-33.37,8,0
HODM,7/11/94,,,,,0,-35.79874945,0.883975355,-37.14,-34.82,8,0
HODM,7/12/94,,,,,0,-31.08125043,2.110135367,-34.9,-28.33,8,0
HODM,7/13/94,,,,,0,-23.78250003,2.773913279,-27.92,-19.72,8,0
HODM,7/14/94,,,,,0,-13.88874996,3.158948385,-18.96,-9.99,8,0
HODM,7/15/94,,,,,0,-6.307500064,1.503935332,-8.67,-4.67,8,0
HODM,7/16/94,,,,,0,-11.17125005,4.734820759,-16.25,-5.77,8,0
HODM,7/17/94,,,,,0,-16.95375001,2.843880516,-21.5,-12.98,8,0
HODM,7/18/94,,,,,0,-24.50999999,1.673789838,-26.29,-20.82,8,0
HODM,7/19/94,,,,,0,-23.49250031,1.626053588,-25.68,-21.61,8,0
HODM,7/20/94,,,,,0,-25.34124994,1.301300932,-26.86,-22.74,8,0
HODM,7/21/94,,,,,0,-27.23749971,1.357368729,-28.89,-25.21,8,0
HODM,7/22/94,,,,,0,-27.39500022,1.461339657,-29.51,-25.03,8,0
HODM,7/23/94,,,,,0,-25.16375017,1.127017691,-26.63,-23.01,8,0
HODM,7/24/94,,,,,0,-22.63000011,0.622804927,-23.53,-21.97,8,0
HODM,7/25/94,,,,,0,-28.05999994,1.480771914,-29.81,-25.66,8,0
HODM,7/26/94,,,,,0,-31.92374992,1.045629795,-33.23,-30.15,8,0
HODM,7/27/94,,,,,0,-26.81750011,4.785955035,-32.29,-19.51,8,0
HODM,7/28/94,,,,,0,-8.411250055,3.353303064,-15.8,-5.52,8,0
HODM,7/29/94,,,,,0,-11.04624993,6.345947682,-26.55,-6.89,8,0
HODM,7/30/94,,,,,0,-29.62750006,0.907756152,-31.33,-28.35,8,0
HODM,7/31/94,,,,,0,-31.94875026,2.663486041,-36.2,-28.27,8,0
HODM,8/1/94,,,,,0,-29.88999987,4.619044581,-36.72,-24.81,8,0
HODM,8/2/94,,,,,0,-26.34375024,1.417270143,-27.52,-23.04,8,0
HODM,8/3/94,,,,,0,-24.83125019,1.032962936,-26.5,-23.51,8,0
HODM,8/4/94,,,,,0,-28.23125005,0.513153768,-28.74,-27.41,8,0
HODM,8/5/94,,,,,0,-28.40625048,1.437089693,-30.19,-26.77,8,0
HODM,8/6/94,,,,,0,-28.2249999,0.773304482,-29.05,-26.6,8,0
HODM,8/7/94,,,,,0,-22.23625016,1.106034691,-23.37,-20.89,8,0
HODM,8/8/94,,,,,0,-21.98625016,1.136258849,-23.79,-20.56,8,0
HODM,8/9/94,,,,,0,-23.10500002,4.448903226,-29.65,-16.19,8,0
HODM,8/10/94,,,,,0,-30.42624998,0.870007296,-32.11,-29.61,8,0
HODM,8/11/94,,,,,0,-33.04625082,0.650734042,-34.13,-32.56,8,0
HODM,8/12/94,,,,,0,-36.19874954,0.916506396,-37.31,-35.03,8,0
HODM,8/13/94,,,,,0,-37.21374989,0.539336924,-38.07,-36.23,8,0
HODM,8/14/94,,,,,0,-32.6875,3.45197509,-37.03,-28.65,8,0
HODM,8/15/94,,,,,0,-26.27624989,1.852572931,-27.92,-23.25,8,0
HODM,8/16/94,,,,,0,-32.33125043,1.726106124,-34.2,-28.46,8,0
HODM,8/17/94,,,,,0,-33.53125,0.698087247,-34.92,-32.45,8,0
HODM,8/18/94,,,,,0,-32.12375069,0.567448981,-32.77,-30.93,8,0
HODM,8/19/94,,,,,0,-30.25875044,0.446300269,-31.19,-29.69,8,0
HODM,8/20/94,,,,,0,-28.10249972,1.248355621,-29.63,-26.12,8,0
HODM,8/21/94,,,,,0,-30.82249975,0.729163056,-31.55,-29.46,8,0
HODM,8/22/94,,,,,0,-26.55999994,1.657984774,-29.81,-24.95,8,0
HODM,8/23/94,,,,,0,-30.25,0.798463199,-31.12,-28.97,8,0
HODM,8/24/94,,,,,0,-28.34124994,0.82299866,-29.53,-26.86,8,0
HODM,8/25/94,,,,,0,-21.9400003,2.763129702,-25.76,-18.19,8,0
HODM,8/26/94,,,,,0,-24.63875008,2.126166868,-28.87,-21.15,8,0
HODM,8/27/94,,,,,0,-27.83874965,1.400280202,-29.4,-25.73,8,0
HODM,8/28/94,,,,,0,-23.79249978,1.057432957,-24.92,-22.16,8,0
HODM,8/29/94,,,,,0,-15.95124996,2.711459489,-22.16,-14.4,8,0
HODM,8/30/94,,,,,0,-16.46125007,1.942512742,-19.1,-14.38,8,0
HODM,8/31/94,,,,,0,-15.80499983,1.260147266,-17.17,-13.95,8,0
HODM,9/1/94,,,,,0,-17.24125028,1.100603147,-18.83,-15.73,8,0
HODM,9/2/94,,,,,0,-22.48000002,1.396413762,-24.44,-20.74,8,0
HODM,9/3/94,,,,,0,-26.33749986,1.623081712,-28.68,-23.96,8,0
HODM,9/4/94,,,,,0,-28.0062499,1.229063634,-29.55,-26.79,8,0
HODM,9/5/94,,,,,0,-31.23000002,1.901698939,-32.99,-27.06,8,0
HODM,9/6/94,,,,,0,-33.40374947,3.035654436,-36.26,-28.55,8,0
HODM,9/7/94,,,,,0,-30.25125027,6.651806813,-37.4,-20.98,8,0
HODM,9/8/94,,,,,0,-16.12499988,2.137522023,-19.99,-12.95,8,0
HODM,9/9/94,,,,,0,-24.66375017,2.574062274,-29.07,-21.2,8,0
HODM,9/10/94,,,,,0,-27.96749997,0.976359853,-28.89,-26.32,8,0
HODM,9/11/94,,,,,0,-30.60625029,1.987187304,-32.31,-26.48,8,0
HODM,9/12/94,,,,,0,-28.57999969,2.007443255,-31.14,-25.58,8,0
HODM,9/13/94,,,,,0,-26.57999992,2.354381788,-29.81,-23.39,8,0
HODM,9/14/94,,,,,0,-28.39499998,3.39774704,-31.81,-21.58,8,0
HODM,9/15/94,,,,,0,-31.46875,1.717143792,-33.51,-29.18,8,0
HODM,9/16/94,,,,,0,-29.12124991,1.820050068,-31.63,-27.11,8,0
HODM,9/17/94,,,,,0,-26.60874987,1.926792113,-28.65,-23.3,8,0
HODM,9/18/94,,,,,0,-25.5999999,2.514398192,-29.4,-22.93,8,0
HODM,9/19/94,,,,,0,-24.77000046,1.859515822,-27.13,-21.85,8,0
HODM,9/20/94,,,,,0,-24.38749981,1.122875589,-25.98,-22.17,8,0
HODM,9/21/94,,,,,0,-21.4262495,0.889477072,-23.22,-20.6,8,0
HODM,9/22/94,,,,,0,-20.61374998,1.927121721,-22.17,-17.17,8,0
HODM,9/23/94,,,,,0,-19.27624989,2.014993247,-21.18,-15.99,8,0
HODM,9/24/94,,,,,0,-25.18750024,2.147428642,-28.16,-22.11,8,0
HODM,9/25/94,,,,,0,-24.86000013,3.26699495,-28.76,-20.61,8,0
HODM,9/26/94,,,,,0,-14.00374985,3.946795816,-20.63,-10,8,2
HODM,9/27/94,,,,,0,-21.89750028,3.707462669,-26.38,-14.32,8,0
HODM,9/28/94,,,,,0,-24.23125005,2.444389715,-27.36,-20.73,8,0
HODM,9/29/94,,,,,0,-20.29999995,2.075881751,-22.84,-17.35,8,0
HODM,9/30/94,,,,,0,-18.28250003,1.867402254,-21.09,-16.12,8,0
HODM,10/1/94,,,,,0,-13.11874986,1.202063008,-14.73,-11.19,8,0
HODM,10/2/94,,,,,0,-10.2274999,1.910824398,-12.29,-7.32,8,0
HODM,10/3/94,,,,,0,-13.92375004,0.701914498,-14.59,-12.42,8,0
HODM,10/4/94,,,,,0,-14.3637501,2.75415465,-18.21,-10.31,8,0
HODM,10/5/94,,,,,0,-13.93124998,4.24178321,-19.17,-8.78,8,0
HODM,10/6/94,,,,,0,-9.461249948,2.020922344,-12.2,-7.33,8,0
HODM,10/7/94,,,,,0,-13.79250002,2.802043765,-19.56,-11.04,8,0
HODM,10/8/94,,,,,0,-19.7437501,2.115574685,-22,-16.49,8,0
HODM,10/9/94,,,,,0,-16.53874993,1.717252159,-18.81,-13.72,8,0
HODM,10/10/94,,,,,0,-16.4837501,2.387132077,-19.2,-12.73,8,0
HODM,10/11/94,,,,,0,-18.04500008,1.889118682,-21.88,-16.28,8,0
HODM,10/12/94,,,,,0,-22.58999991,1.200618803,-24.09,-21.22,8,0
HODM,10/13/94,,,,,0,-23.87624979,2.162604055,-26.57,-19.88,8,0
HODM,10/14/94,,,,,0,-24.2650001,2.998394787,-27.14,-19.49,8,0
HODM,10/15/94,,,,,0,-24.92374992,2.661873599,-27.34,-20.89,8,0
HODM,10/16/94,,,,,0,-25.77375031,2.098087003,-28.22,-22.75,8,0
HODM,10/17/94,,,,,0,-22.33500004,2.050407572,-25.35,-19.94,8,0
HODM,10/18/94,,,,,0,-18.46624994,0.983244597,-19.75,-17.31,8,0
HODM,10/19/94,,,,,0,-21.00375032,0.961203685,-22.53,-19.2,8,0
HODM,10/20/94,,,,,0,-14.56375015,2.505638974,-18.49,-11.85,8,0
HODM,10/21/94,,,,,0,-11.87250006,2.093921654,-14.87,-8.19,8,0
HODM,10/22/94,,,,,0,-12.92124975,1.757656199,-15.16,-10.74,8,0
HODM,10/23/94,,,,,0,-13.7962501,2.329027607,-18.16,-11.78,8,0
HODM,10/24/94,,,,,0,-13.95249957,4.296954672,-19.88,-7.39,8,0
HODM,10/25/94,,,,,0,-18.00749981,2.631320916,-21.74,-13.79,8,0
HODM,10/26/94,,,,,0,-19.62750018,3.702858872,-23.47,-13.96,8,0
HODM,10/27/94,,,,,0,-21.15624976,1.461564265,-23.25,-19.55,8,0
HODM,10/28/94,,,,,0,-20.69499993,2.356844435,-23.78,-17.64,8,0
HODM,10/29/94,,,,,0,-16.37624991,4.40996903,-21.43,-9.36,8,0
HODM,10/30/94,,,,,0,-13.30250001,1.294733821,-14.91,-11.05,8,0
HODM,10/31/94,,,,,0,-11.15624988,1.461124176,-13.78,-9.23,8,0
HODM,11/1/94,,,,,0,-12.37125003,1.789528528,-15.25,-10.26,8,0
HODM,11/2/94,,,,,0,-10.51374984,2.249482049,-13.24,-6.88,8,1
HODM,11/3/94,,,,,0,-3.816249967,2.819796968,-8.99,-1.1,8,0
HODM,11/4/94,,,,,0,-3.019999951,0.921799451,-4.66,-1.54,8,0
HODM,11/5/94,,,,,0,-7.728749812,3.260067554,-13.4,-3.85,8,0
HODM,11/6/94,,,,,0,-8.664999902,2.500685594,-12.4,-5.54,8,0
HODM,11/7/94,,,,,0,-12.97500002,1.965727703,-14.72,-8.77,8,0
HODM,11/8/94,,,,,0,-10.71499985,3.133427969,-14.57,-6.83,8,0
HODM,11/9/94,,,,,0,-10.77000004,2.538250149,-13.72,-6.28,8,0
HODM,11/10/94,,,,,0,-8.503750026,2.19152872,-11.41,-5.87,8,0
HODM,11/11/94,,,,,0,-8.547499955,2.479531771,-11.73,-5.03,8,0
HODM,11/12/94,,,,,0,-8.838749886,2.366150811,-11.67,-5.56,8,0
HODM,11/13/94,,,,,0,-9.797500014,1.915409428,-12.38,-7.43,8,0
HODM,11/14/94,,,,,0,-9.283749938,2.087369605,-11.36,-5.69,8,0
HODM,11/15/94,,,,,0,-8.786249876,3.149924859,-12.62,-4.1,8,0
HODM,11/16/94,,,,,0,-8.578749933,4.355142769,-12.9,-0.07,8,0
HODM,11/17/94,,,,,0,-8.123750001,3.715938462,-12.29,-3.05,8,0
HODM,11/18/94,,,,,0,-10.50624996,2.394403674,-13.33,-6.39,8,0
HODM,11/19/94,,,,,0,-9.372500181,2.851755088,-12.57,-4.26,8,0
HODM,11/20/94,,,,,0,-11.29375005,2.744604811,-13.78,-5.29,8,0
HODM,11/21/94,,,,,0,-12.38625002,2.058813385,-15.09,-9.45,8,0
HODM,11/22/94,,,,,0,-12.4849999,2.573596648,-15.19,-8.84,8,0
HODM,11/23/94,,,,,0,-8.92090908,3.43020289,-15.01,-3.59,44,0
HODM,11/24/94,,,,,0,-11.09583329,1.320127692,-13.23,-7.5,72,0
HODM,11/25/94,,,,,0,-7.383888902,4.513565973,-13.31,4.19,72,0
HODM,11/26/94,,,,,0,-12.1356944,2.216811483,-16.29,-7.54,72,0
HODM,11/27/94,,,,,0,-12.75416662,2.911085011,-17.12,-7.22,72,1
HODM,11/28/94,,,,,0,-13.28638889,1.592340178,-16.55,-8.76,72,0
HODM,11/29/94,,,,,0,-12.77861114,1.641350573,-16.14,-8.94,72,0
HODM,11/30/94,,,,,0,-12.50111107,2.859297802,-17.31,-8.3,72,0
HODM,12/1/94,,,,,0,-11.46125003,3.154795111,-16.35,-7.14,72,0
HODM,12/2/94,,,,,0,-10.05013891,3.70546932,-15.56,-2.72,72,0
HODM,12/3/94,,,,,0,-6.80361112,4.288834938,-14.58,0.75,72,0
HODM,12/4/94,,,,,0,-7.113611086,1.734062457,-9.98,-2.1,72,0
HODM,12/5/94,,,,,0,-6.328194454,2.154422472,-9.66,-1.39,72,0
HODM,12/6/94,,,,,0,-5.564861092,2.546140402,-9.59,-0.57,72,0
HODM,12/7/94,,,,,0,-6.364027755,2.390028944,-9.54,-0.21,72,0
HODM,12/8/94,,,,,0,-6.065416673,2.728634277,-10.91,-0.96,72,0